This is the latest recevied weather packets stored in our database for station/object DG1GMY-13. If no packets are shown the sender has not sent any weather packets the latest 10 day(s).
| Time | Temp. | Humidity | Pressure | Rain* | Wind** | Luminosity | Snow |
|---|---|---|---|---|---|---|---|
| 1777859019 | 11.67° C | 72% | 1015.7 hPa | - | - | - | - |
| 1777857213 | 11.67° C | 70% | 1015.7 hPa | - | - | - | - |
| 1777855407 | 12.22° C | 67% | 1015.5 hPa | - | - | - | - |
| 1777853602 | 12.22° C | 66% | 1015.5 hPa | - | - | - | - |
| 1777851795 | 12.78° C | 66% | 1015.4 hPa | - | - | - | - |
| 1777849990 | 13.33° C | 65% | 1015.3 hPa | - | - | - | - |
| 1777848184 | 13.89° C | 63% | 1015.4 hPa | - | - | - | - |
| 1777846378 | 14.44° C | 60% | 1015.5 hPa | - | - | - | - |
| 1777844571 | 15° C | 58% | 1015.5 hPa | - | - | - | - |
| 1777842766 | 15.56° C | 60% | 1015.5 hPa | - | - | - | - |
| 1777840960 | 15.56° C | 55% | 1015.2 hPa | - | - | - | - |
| 1777839154 | 16.67° C | 47% | 1015.3 hPa | - | - | - | - |
| 1777837348 | 16.11° C | 46% | 1015.2 hPa | - | - | - | - |
| 1777835542 | 17.22° C | 45% | 1015.6 hPa | - | - | - | - |
| 1777833735 | 17.78° C | 43% | 1015.6 hPa | - | - | - | - |
| 1777831930 | 18.33° C | 41% | 1015.4 hPa | - | - | - | - |
| 1777830124 | 18.89° C | 38% | 1015.2 hPa | - | - | - | - |
| 1777828318 | 20° C | 37% | 1015.1 hPa | - | - | - | - |
| 1777826512 | 20.56° C | 36% | 1015.2 hPa | - | - | - | - |
| 1777824706 | 21.11° C | 34% | 1015 hPa | - | - | - | - |
| 1777822900 | 22.22° C | 33% | 1014.3 hPa | - | - | - | - |
| 1777821094 | 24.44° C | 38% | 1013.6 hPa | - | - | - | - |
| 1777819288 | 25° C | 36% | 1013.7 hPa | - | - | - | - |
| 1777817483 | 24.44° C | 40% | 1013.9 hPa | - | - | - | - |
| 1777815676 | 25° C | 38% | 1014 hPa | - | - | - | - |
* Rain since midnight (hover to see other rain measurements)
** Current wind speed in m/s (hover to see current wind gust speed)